Location: Pedholt
(56.0260°N, 10.2097°E)
Time: 21:30:57
(UTC+00:00)

Transit 2A Rocket - Pass Details

Date: 05 August 2021
Orbit: 586 x 917 km, 66.7° (Epoch: 26 September)

Event Time Altitude Azimuth Distance (km) Brightness Sun altitude
Rises 19:36:23 0° 314° (NW) 3,185 10.8 -2.9°
Reaches altitude 10° 19:38:42 10° 317° (NW) 2,309 9.3 -3.2°
Maximum altitude 19:44:01 69° 41° (NE) 876 5.4 -3.8°
Drops below altitude 10° 19:49:49 10° 125° (SE) 2,508 7.0 -4.4°
Enters shadow 19:50:57 - 127° (SE) 2,930 7.3 -4.5°
Sets 19:52:24 0° 128° (SE) 3,479 - -4.7°
